Flag for Germany Weather past 2 weeks in Bruchsal, Baden-Württemberg, Germany

Now
66 °F

Passing clouds.


Feels Like: 66 °F
Forecast: 57 / 81 °F
Wind: 6 mph from North

Location: Baden Wurttemberg - Neuostheim

Current Time: Jul 31, 2014 at 8:31:57 AM

Latest Report: Jul 31, 2014 at 7:50 AM


Visibility: N/A

Pressure: 30.01 "Hg

Humidity: 78%

Dew point: 59 °F

Location of BruchsalLocation

Historic Weather in Bruchsal — Graph

°F

Bruchsal temperature yesterday

Maximum temperature yesterday: 72 °F (at 11:20 AM)
Minimum temperature yesterday: 66 °F (at 5:20 AM)
Average temperature yesterday: 70 °F

Past Weeks' High & Low Weather Summary

 TemperatureHumidityPressure
High93 °F (Jul 18, 4:50 PM)100% (Jul 21, 5:50 AM)30.18 "Hg (Jul 21, 5:50 AM)
Low59 °F (Jul 17, 5:50 AM)20% (Jul 18, 5:50 PM)29.74 "Hg (Jul 29, 4:20 PM)
Average75 °F62%29.93 "Hg
* Reported Jul 16 7:20 AM — Jul 31 7:20 AM, Bruchsal, Weather by CustomWeather, © 2014

Note: Actual official high and low records may vary slightly from our data, if they occured in-between our weather recording intervals... More about our weather records

Advertising

Bruchsal weather history for previous 24 hours

 ConditionsComfort  
Time TempWeatherWind HumidityBarometerVisibility
7:20 AM
Jul 31
64 °FPassing clouds.5 mph83%30.01 "HgN/A
6:50 AM63 °FClear.3 mph88%30.01 "Hg10 mi
6:20 AM63 °FClear.3 mph88%29.98 "Hg10 mi
5:50 AM64 °FClear.3 mph83%29.98 "Hg10 mi
5:20 AM64 °FClear.3 mph83%29.98 "Hg10 mi
8:50 PM
Jul 30
72 °FPartly sunny.5 mph69%29.92 "HgN/A
8:20 PM72 °FPartly sunny.7 mph69%29.92 "HgN/A
7:50 PM72 °FBroken clouds.7 mph69%29.89 "HgN/A
7:20 PM72 °FOvercast.9 mph69%29.89 "HgN/A
6:50 PM72 °FOvercast.7 mph69%29.89 "HgN/A
6:20 PM72 °FPartly sunny.9 mph69%29.89 "HgN/A
5:50 PM72 °FOvercast.10 mph73%29.89 "HgN/A
5:20 PM72 °FBroken clouds.10 mph73%29.89 "HgN/A
4:50 PM72 °FBroken clouds.14 mph69%29.86 "HgN/A
4:20 PM72 °FScattered clouds.13 mph69%29.86 "HgN/A
3:50 PM72 °FBroken clouds.14 mph73%29.86 "HgN/A
3:20 PM72 °FBroken clouds.12 mph73%29.86 "HgN/A
2:50 PM72 °FBroken clouds.12 mph73%29.86 "HgN/A
2:20 PM70 °FSprinkles. Broken clouds.14 mph78%29.86 "HgN/A
1:50 PM72 °FScattered showers. Broken clouds.16 mph78%29.83 "HgN/A
1:20 PM72 °FScattered showers. Broken clouds.15 mph73%29.83 "HgN/A
12:50 PM70 °FBroken clouds.13 mph83%29.83 "HgN/A
12:20 PM70 °FPartly sunny.14 mph83%29.83 "HgN/A
11:50 AM72 °FCloudy.13 mph78%29.83 "HgN/A
11:20 AM72 °FBroken clouds.10 mph78%29.83 "HgN/A
10:50 AM70 °FMore clouds than sun.9 mph83%29.83 "HgN/A
10:20 AM70 °FBroken clouds.12 mph83%29.80 "HgN/A
9:50 AM70 °FBroken clouds.10 mph88%29.80 "HgN/A
9:20 AM70 °FPartly sunny.7 mph88%29.80 "HgN/A
8:50 AM68 °FCloudy.7 mph94%29.80 "HgN/A
8:20 AM68 °FMostly cloudy.7 mph94%29.80 "Hg6 mi
Weather by CustomWeather, © 2014

See weather overviewHow to use our weather pages